Location: Clyde
(45.1830°S, 169.3170°E)
Time: 17:34:50
(UTC+12:00)

Okean O Rocket - Pass Details

Date: 14 May 2021
Orbit: 622 x 645 km, 98.2° (Epoch: 16 June)

Event Time Altitude Azimuth Distance (km) Brightness Sun altitude
Exits shadow 20:43:31 24° 253° (WSW) 1,366 3.8 -34.9°
Drops below altitude 10° 20:46:44 10° 298° (WNW) 2,057 4.8 -35.5°
Sets 20:49:16 0° 311° (NW) 2,961 5.5 -35.9°
